sat.trackr.live / text

‹ back to catalog

STARLINK-30400

NORAD 57937 · 2023-148C

PAYLOAD ACTIVE UNKNOWN

§ Identity

Operator
Country
US
Launch date
2023-09-25
Launch site
AFWTR
Launch vehicle
Mass (kg)
RCS (m²)

Purposes: comms

External: N2YO · Heavens-Above · Gunter

§ Orbital elements

Epoch: 2026-05-25T02:38:07.245312Z

Period
94.04 min
Inclination
53.1611°
Eccentricity
0.0003531
Mean motion
15.31244365 rev/d
Perigee alt
469.7 km
Apogee alt
474.5 km
Semi-major
6,850.2 km
B*
4.2251e-3
RAAN
29.2151°
Arg perigee
159.4906°
Mean anomaly
200.6238°
Rev number
15,012

§ Raw data

STARLINK-304001 57937U 23148C   26145.10980608  .00131203  00000+0  42251-2 0  99942 57937  53.1611  29.2151 0003531 159.4906 200.6238 15.31244365150120

JSON: /api/v1/satellites/57937 · /tle

For live sub-satellite position, see the globe view (requires WebGL).

§ Visibility from observer

Set your observer location to see the next 7 days of passes ≥ 10°. The values pass through the URL so the page stays shareable.

No JS? Fill the form by hand. The geolocation button needs JavaScript.